Date,TemperatureHighF,TemperatureAvgF,TemperatureLowF,DewpointHighF,DewpointAvgF,DewpointLowF,HumidityHigh,HumidityAvg,HumidityLow,PressureMaxIn,PressureMinIn,WindSpeedMaxMPH,WindSpeedAvgMPH,GustSpeedMaxMPH,PrecipitationSumIn
2013-1-1,35.0,27.4,19.9,31.4,20.3,13.3,87,74,64,30.18,29.99,3,2,6,0.04
2013-1-2,37.5,26.7,17.7,21.4,16.5,11.3,82,66,49,30.16,30.03,0,0,0,0.12
2013-1-3,41.5,33.0,24.8,28.6,23.9,19.2,80,70,56,30.31,30.12,0,0,0,0.28
2013-1-4,42.9,35.1,28.2,26.6,24.6,22.2,79,66,51,30.36,30.12,0,0,0,0.00
2013-1-5,42.8,38.4,33.4,33.8,29.2,23.6,76,69,64,30.19,30.01,0,0,0,0.00
2013-1-6,37.9,33.9,28.2,31.0,24.0,19.0,77,67,57,30.28,30.06,0,0,0,0.00
2013-1-7,50.1,38.5,27.8,31.9,26.3,19.0,83,63,42,30.24,30.03,0,0,0,0.00
2013-1-8,55.2,45.4,35.4,44.2,32.1,26.7,78,61,38,30.10,29.94,0,0,0,0.00
2013-1-9,54.6,48.2,42.9,45.0,39.7,32.6,86,73,55,30.28,30.07,0,0,0,0.00
2013-1-10,54.1,48.7,43.5,49.2,42.4,32.6,88,79,59,30.24,29.71,0,0,0,0.28
2013-1-11,65.1,56.1,49.2,49.9,47.4,45.5,87,73,56,29.75,29.63,0,0,0,0.00
2013-1-12,59.1,47.2,33.4,47.9,34.4,24.3,78,62,44,29.92,29.68,0,0,0,0.31
2013-1-24,34.3,33.9,33.2,19.7,17.7,15.2,55,51,47,30.13,30.06,0,0,0,0.00
2013-1-25,45.8,38.1,32.7,24.3,22.2,16.3,66,53,41,30.14,29.99,0,0,0,0.00
2013-1-26,53.6,42.5,33.0,32.6,26.1,21.8,68,53,39,30.26,30.07,3,0,5,0.00
2013-1-27,58.1,49.3,42.6,52.1,41.6,30.7,82,75,56,30.07,29.80,6,4,13,0.12
2013-1-28,74.6,66.8,57.5,61.5,57.6,51.7,84,73,59,29.86,29.72,6,3,17,0.04
2013-1-29,70.3,62.5,54.1,60.1,55.5,49.4,85,78,65,29.72,29.38,7,3,13,1.22
2013-1-30,54.1,38.1,29.6,49.7,30.2,18.9,85,73,64,29.89,29.32,6,3,21,0.04
2013-1-31,38.1,28.0,16.1,26.5,16.9,2.4,78,63,47,30.33,29.85,5,2,11,0.00